Location: Newark
(25.4297°S, 49.2719°W)
Time: 20:32:13
(UTC+00:00)

Hubble Space Telescope - Visible Passes

Search period start: 23 June 2021 00:00
Search period end: 03 July 2021 00:00
Orbit: 535 x 539 km, 28.5° (Epoch: 23 June)

Date Brightness Start Highest point End Pass type
(mag) Time Alt. Az. Time Alt. Az. Time Alt. Az.
23 Jun 3.7 07:24:48 15° ENE 07:24:48 15° ENE 07:25:35 10° ENE visible
23 Jun 2.6 09:00:07 14° WNW 09:02:20 20° NNW 09:05:23 10° NNE visible
24 Jun 2.9 08:49:53 13° NW 08:51:19 15° NNW 08:53:45 10° N visible
25 Jun 3.1 08:39:40 11° NW 08:40:17 11° NNW 08:41:40 10° N visible
26 Jun 3.3 22:11:37 10° NNE 22:11:45 10° NNE 22:11:45 10° NNE visible
27 Jun 2.9 21:58:48 10° N 22:00:56 14° NNE 22:01:32 13° NE visible
28 Jun 2.7 21:47:04 10° NNW 21:49:54 18° NNE 21:51:19 15° NE visible
29 Jun 2.4 21:35:35 10° NNW 21:38:52 23° NNE 21:41:05 15° ENE visible
29 Jun 3.7 23:15:41 10° WNW 23:16:24 15° WNW 23:16:24 15° WNW visible
30 Jun 2.1 21:24:15 10° NW 21:27:52 29° NNE 21:30:49 14° E visible
30 Jun 3.3 23:04:43 10° WNW 23:06:08 21° WNW 23:06:08 21° WNW visible
01 Jul 1.7 21:13:02 10° NW 21:16:52 37° NNE 21:20:33 11° E visible
01 Jul 2.7 22:53:48 10° W 22:55:52 28° W 22:55:52 28° W visible
02 Jul 1.4 21:01:53 10° NW 21:05:53 47° NNE 21:09:52 10° E visible
02 Jul 2.1 22:42:53 10° W 22:45:34 38° W 22:45:34 38° W visible
